This is the latest recevied weather packets stored in our database for station/object SP4FDH-13. If no packets are shown the sender has not sent any weather packets the latest 10 day(s).
| Time | Temp. | Humidity | Pressure | Rain* | Wind** | Luminosity | Snow |
|---|---|---|---|---|---|---|---|
| 1777640157 | 23.33° C | 39% | 1023 hPa | - | - | - | - |
| 1777639581 | 23.89° C | 39% | 1023 hPa | - | - | - | - |
| 1777639007 | 23.89° C | 40% | 1023.2 hPa | - | - | - | - |
| 1777638431 | 23.89° C | 39% | 1023.2 hPa | - | - | - | - |
| 1777637856 | 23.89° C | 39% | 1023.4 hPa | - | - | - | - |
| 1777637280 | 23.89° C | 40% | 1023.5 hPa | - | - | - | - |
| 1777636705 | 24.44° C | 39% | 1023.4 hPa | - | - | - | - |
| 1777636128 | 24.44° C | 39% | 1023.5 hPa | - | - | - | - |
| 1777635552 | 23.89° C | 40% | 1023.5 hPa | - | - | - | - |
| 1777634975 | 23.33° C | 40% | 1023.5 hPa | - | - | - | - |
| 1777634398 | 23.33° C | 42% | 1023.5 hPa | - | - | - | - |
| 1777633823 | 22.78° C | 41% | 1023.5 hPa | - | - | - | - |
| 1777633246 | 22.78° C | 43% | 1023.7 hPa | - | - | - | - |
| 1777632671 | 22.22° C | 42% | 1023.5 hPa | - | - | - | - |
| 1777632094 | 22.78° C | 42% | 1023.6 hPa | - | - | - | - |
| 1777631518 | 22.22° C | 44% | 1023.7 hPa | - | - | - | - |
| 1777630942 | 21.67° C | 44% | 1023.7 hPa | - | - | - | - |
| 1777630367 | 22.22° C | 44% | 1023.6 hPa | - | - | - | - |
| 1777629791 | 22.22° C | 45% | 1023.8 hPa | - | - | - | - |
| 1777629216 | 21.67° C | 45% | 1023.9 hPa | - | - | - | - |
| 1777628638 | 21.67° C | 45% | 1023.8 hPa | - | - | - | - |
| 1777628061 | 21.11° C | 46% | 1023.9 hPa | - | - | - | - |
| 1777627485 | 21.11° C | 45% | 1023.8 hPa | - | - | - | - |
| 1777626908 | 21.11° C | 46% | 1024 hPa | - | - | - | - |
| 1777626331 | 21.11° C | 46% | 1024.1 hPa | - | - | - | - |
* Rain since midnight (hover to see other rain measurements)
** Current wind speed in m/s (hover to see current wind gust speed)